Location: Spruce Knob
(38.6995°N, 79.5330°W)
Time: 15:40:17
(UTC-05:00)

Vanguard 1 - All Passes

Search period start: 25 January 2022 00:00
Search period end: 04 February 2022 00:00
Orbit: 652 x 3830 km, 34.2° (Epoch: 24 January)

Date Brightness Start Highest point End Pass type
(mag) Time Alt. Az. Time Alt. Az. Time Alt. Az.
25 Jan - 07:08:32 10° S 07:15:07 15° SSE 07:20:10 10° ESE visible
25 Jan - 09:27:44 10° SW 09:36:50 35° SSE 09:42:25 10° E daylight
25 Jan - 11:50:30 10° WSW 11:57:14 54° S 12:01:48 10° E daylight
25 Jan - 14:12:27 10° W 14:16:51 36° SSW 14:20:58 10° SE daylight
25 Jan - 16:35:43 10° SW 16:36:24 10° SSW 16:37:07 10° SSW daylight
26 Jan - 07:27:04 10° SSW 07:36:17 21° SSE 07:42:35 10° ESE daylight
26 Jan - 09:48:24 10° SW 09:57:47 43° SSE 10:03:23 10° E daylight
26 Jan - 12:11:35 10° W 12:18:04 55° S 12:22:34 10° ESE daylight
26 Jan - 14:33:34 10° W 14:37:34 27° SSW 14:41:25 10° SE daylight
27 Jan - 07:46:34 10° SSW 07:57:24 28° SSE 08:04:14 10° ESE daylight
27 Jan - 10:09:19 10° WSW 10:18:43 50° S 10:24:14 10° E daylight
27 Jan - 12:32:42 10° W 12:38:52 52° S 12:43:17 10° ESE daylight
27 Jan - 14:54:54 10° WSW 14:58:14 20° SSW 15:01:33 10° SSE daylight
28 Jan - 05:48:13 10° S 05:55:54 15° SSE 06:01:56 10° ESE visible
28 Jan - 08:06:41 10° SW 08:18:29 35° SSE 08:25:29 10° E daylight
28 Jan - 10:30:24 10° WSW 10:39:38 56° S 10:45:02 10° E daylight
28 Jan - 12:53:50 10° W 12:59:38 46° SSW 13:03:57 10° ESE daylight
28 Jan - 15:16:45 10° WSW 15:18:53 13° SSW 15:21:03 10° S daylight
29 Jan - 06:06:05 10° S 06:17:08 21° SSE 06:24:52 10° ESE visible
29 Jan - 08:27:12 10° SW 08:39:32 43° SSE 08:46:31 10° E daylight
29 Jan - 10:51:35 10° WSW 11:00:31 60° S 11:05:47 10° E daylight
29 Jan - 13:15:01 10° W 13:20:21 37° SSW 13:24:29 10° SE daylight
30 Jan - 06:25:10 10° SSW 06:38:19 28° SSE 06:46:47 10° E visible
30 Jan - 08:48:03 10° SW 09:00:33 51° SSE 09:07:26 10° E daylight
30 Jan - 11:12:51 10° W 11:21:24 60° S 11:26:32 10° ESE daylight
30 Jan - 13:36:16 10° W 13:40:59 28° SSW 13:44:50 10° SE daylight
31 Jan - 04:28:27 10° SSE 04:36:04 14° SE 04:42:25 10° ESE visible
31 Jan - 06:44:57 10° SSW 06:59:28 35° SSE 07:08:14 10° E visible
31 Jan - 09:09:08 10° WSW 09:21:33 58° S 09:28:16 10° E daylight
31 Jan - 11:34:07 10° W 11:42:13 57° S 11:47:13 10° ESE daylight
31 Jan - 13:57:44 10° WSW 14:01:34 20° SSW 14:04:52 10° SSE daylight
01 Feb - 04:45:14 10° S 04:57:18 20° SSE 05:06:19 10° ESE visible
01 Feb - 07:05:15 10° SW 07:20:36 42° SSE 07:29:24 10° E daylight
01 Feb - 09:30:24 10° WSW 09:42:31 63° S 09:49:04 10° E daylight
01 Feb - 11:55:24 10° W 12:03:00 50° SSW 12:07:50 10° ESE daylight
01 Feb - 14:19:47 10° WSW 14:22:04 13° SW 14:24:11 10° S daylight
02 Feb - 05:03:43 10° SSW 05:18:31 26° SSE 05:28:43 10° E visible
02 Feb - 07:25:56 10° SW 07:41:42 50° SSE 07:50:25 10° E daylight
02 Feb - 09:51:45 10° WSW 10:03:28 66° S 10:09:49 10° E daylight
02 Feb - 12:16:42 10° W 12:23:42 41° SSW 12:28:20 10° SE daylight
03 Feb - 03:10:56 10° SSE 03:15:43 11° SE 03:20:08 10° SE visible
03 Feb - 05:23:04 10° SSW 05:39:42 33° SSE 05:50:27 10° E visible
03 Feb - 07:46:55 10° WSW 08:02:47 57° SSE 08:11:19 10° E daylight
03 Feb - 10:13:11 10° W 10:24:24 65° S 10:30:33 10° ESE daylight
03 Feb - 12:38:05 10° W 12:44:18 31° SSW 12:48:38 10° SE daylight
